This demonstration page uses our WeatherBlox Daily Observations layout. Learn more.

Left ArrowRight Arrow

41.12389, -100.76542

Hourly Observations for December 9, 2016

Temp ( °F °C ) Dew Point ( °F °C ) Humidity (%) Winds ( mph kmh ) Pressure ( in mb ) Visibility ( mi km ) Precip ( " mm )
12:53 am 00:53 Clear 2 -16.7 -3 -19.4 80 80 ESE 6 9 30.63 1037 10 16 0.00 0.00
1:53 am 01:53 Clear 2 -16.7 -3 -19.4 80 80 ESE 6 9 30.60 1036 10 16 0.00 0.00
2:53 am 02:53 Clear 3 -16.1 -2 -18.9 79 79 ESE 8 13 30.57 1035 10 16 0.00 0.00
3:53 am 03:53 Clear 3 -16.1 -2 -18.9 79 79 ESE 9 15 30.55 1035 10 16 0.00 0.00
4:53 am 04:53 Mostly Cloudy 4 -15.6 -1 -18.3 80 80 ESE 8 13 30.54 1034 10 16 0.00 0.00
5:53 am 05:53 Cloudy 7 -13.9 2 -16.7 80 80 ESE 7 11 30.52 1034 10 16 0.00 0.00
6:53 am 06:53 Cloudy 13 -10.6 5 -15 70 70 SSE 9 15 30.50 1033 10 16 0.00 0.00
7:53 am 07:53 Cloudy 14 -10 4 -15.6 64 64 SE 12 19 30.50 1033 10 16 0.00 0.00
8:53 am 08:53 Cloudy 15 -9.4 5 -15 64 64 SE 10 17 30.48 1032 10 16 0.00 0.00
9:53 am 09:53 Cloudy 17 -8.3 6 -14.4 62 62 SSE 9 15 30.51 1033 10 16 0.00 0.00
10:53 am 10:53 Cloudy 19 -7.2 7 -13.9 59 59 S 16 26 30.49 1032 10 16 0.00 0.00
11:53 am 11:53 Mostly Cloudy 22 -5.6 9 -12.8 57 57 S 15 24 30.44 1031 10 16 0.00 0.00
12:53 pm 12:53 Sunny 24 -4.4 11 -11.7 57 57 SSW 14 22 30.41 1030 10 16 0.00 0.00
1:41 pm 13:41 Mostly Cloudy 26 -3.3 12 -11.1 55 55 S 9 15 30.42 1030 10 16 0.00 0.00
1:53 pm 13:53 Partly Cloudy 26 -3.3 12 -11.1 55 55 S 8 13 30.40 1029 10 16 0.00 0.00
2:53 pm 14:53 Mostly Cloudy 28 -2.2 13 -10.6 53 53 S 7 11 30.40 1029 10 16 0.00 0.00
3:53 pm 15:53 Sunny 28 -2.2 13 -10.6 53 53 SSE 8 13 30.41 1030 10 16 0.00 0.00
4:53 pm 16:53 Sunny 25 -3.9 13 -10.6 60 60 S 3 6 30.42 1030 10 16 0.00 0.00
5:53 pm 17:53 Clear 19 -7.2 11 -11.7 71 71 NE 5 7 30.45 1031 10 16 0.00 0.00
6:53 pm 18:53 Clear 15 -9.4 9 -12.8 77 77 Calm 30.44 1031 10 16 0.00 0.00
7:53 pm 19:53 Clear 14 -10 9 -12.8 80 80 E 6 9 30.43 1031 10 16 0.00 0.00
8:53 pm 20:53 Clear 14 -10 9 -12.8 80 80 E 6 9 30.44 1031 10 16 0.00 0.00
9:53 pm 21:53 Clear 14 -10 10 -12.2 84 84 E 7 11 30.43 1030 10 16 0.00 0.00
10:53 pm 22:53 Cloudy 15 -9.4 11 -11.7 84 84 ESE 6 9 30.44 1031 10 16 0.00 0.00
11:53 pm 23:53 Mostly Clear 16 -8.9 11 -11.7 80 80 ESE 9 15 30.40 1029 10 16 0.00 0.00

Powered by AerisWeather